timestamp,wind_dir_avg,wind_spd_avg,wind_spd_max_dir,wind_spd_gust,battery_voltage,lat,long
2023-08-15 00:04:00+00:00,61.0,5.56,62.0,6.06,12.49,47.59359,-54.27349
2023-08-15 00:14:01+00:00,63.0,4.38,58.0,5.17,12.41,47.59359,-54.27349
2023-08-15 00:24:01+00:00,51.0,5.35,49.0,6.2,12.41,47.59359,-54.27349
2023-08-15 00:34:01+00:00,47.0,7.09,48.0,7.95,12.41,47.59359,-54.27349
2023-08-15 00:44:01+00:00,40.0,7.48,43.0,8.17,12.41,47.59359,-54.27349
2023-08-15 00:54:01+00:00,50.0,6.05,58.0,7.15,12.41,47.59359,-54.27349
2023-08-15 01:04:01+00:00,40.0,6.08,40.0,6.92,12.41,47.59359,-54.27349
2023-08-15 01:14:01+00:00,48.0,6.82,47.0,7.82,12.41,47.59359,-54.27349
2023-08-15 01:24:01+00:00,56.0,6.37,54.0,7.32,12.41,47.59359,-54.27349
2023-08-15 01:34:01+00:00,56.0,5.96,59.0,6.81,12.41,47.59359,-54.27349
2023-08-15 01:44:01+00:00,76.0,3.04,74.0,4.9,12.41,47.59359,-54.27349
2023-08-15 01:54:01+00:00,76.0,3.66,71.0,5.38,12.41,47.59359,-54.27349
2023-08-15 02:04:01+00:00,71.0,3.79,67.0,5.22,12.41,47.59359,-54.27349
2023-08-15 02:14:00+00:00,71.0,4.52,72.0,6.07,12.41,47.59359,-54.27349
2023-08-15 02:24:00+00:00,72.0,4.22,73.0,4.93,12.41,47.59359,-54.27349
2023-08-15 02:34:00+00:00,58.0,5.47,58.0,6.09,12.41,47.59359,-54.27349
2023-08-15 02:44:00+00:00,51.0,5.91,50.0,6.39,12.41,47.59359,-54.27349
2023-08-15 02:54:00+00:00,63.0,6.19,64.0,6.82,12.41,47.59359,-54.27349
2023-08-15 03:04:00+00:00,60.0,6.41,61.0,7.0,12.41,47.59359,-54.27349
2023-08-15 03:14:00+00:00,63.0,4.97,61.0,5.62,12.41,47.59359,-54.27349
2023-08-15 03:24:00+00:00,66.0,4.65,61.0,5.12,12.41,47.59359,-54.27349
2023-08-15 03:34:00+00:00,69.0,3.73,64.0,5.25,12.41,47.59359,-54.27349
2023-08-15 03:44:00+00:00,56.0,6.37,56.0,7.08,12.41,47.59359,-54.27349
2023-08-15 03:54:00+00:00,56.0,6.24,56.0,7.18,12.41,47.59359,-54.27349
2023-08-15 04:04:00+00:00,42.0,6.77,44.0,7.19,12.41,47.59359,-54.27349
2023-08-15 04:14:01+00:00,49.0,6.01,53.0,6.62,12.41,47.59359,-54.27349
2023-08-15 04:24:01+00:00,40.0,6.33,46.0,7.0,12.41,47.59359,-54.27349
2023-08-15 04:34:01+00:00,47.0,6.77,49.0,7.66,12.41,47.59359,-54.27349
2023-08-15 04:44:01+00:00,44.0,6.32,46.0,6.81,12.41,47.59359,-54.27349
2023-08-15 04:54:01+00:00,44.0,5.48,46.0,6.3,12.41,47.59359,-54.27349
2023-08-15 05:04:01+00:00,43.0,6.42,45.0,7.01,12.41,47.59359,-54.27349
2023-08-15 05:14:01+00:00,45.0,6.91,44.0,7.75,12.41,47.59359,-54.27349
2023-08-15 05:24:01+00:00,50.0,6.28,51.0,7.18,12.41,47.59359,-54.27349
2023-08-15 05:34:01+00:00,49.0,7.01,46.0,8.02,12.41,47.59359,-54.27349
2023-08-15 05:44:01+00:00,47.0,6.99,50.0,7.73,12.41,47.59359,-54.27349
2023-08-15 05:54:01+00:00,46.0,6.84,47.0,7.83,12.41,47.59359,-54.27349
2023-08-15 06:04:01+00:00,50.0,7.41,51.0,7.91,12.41,47.59359,-54.27349
2023-08-15 06:14:00+00:00,40.0,7.62,39.0,8.38,12.33,47.59359,-54.27349
2023-08-15 06:24:00+00:00,51.0,7.31,48.0,7.95,12.33,47.59359,-54.27349
2023-08-15 06:34:00+00:00,53.0,7.61,51.0,8.33,12.33,47.59359,-54.27349
2023-08-15 06:44:00+00:00,55.0,7.24,56.0,7.9,12.33,47.59359,-54.27349
2023-08-15 06:54:00+00:00,54.0,7.61,55.0,8.03,12.33,47.59359,-54.27349
2023-08-15 07:04:00+00:00,47.0,7.12,47.0,7.78,12.33,47.59359,-54.27349
2023-08-15 07:14:01+00:00,53.0,6.56,54.0,7.3,12.33,47.59359,-54.27349
2023-08-15 07:24:01+00:00,61.0,6.62,64.0,7.68,12.33,47.59359,-54.27349
2023-08-15 07:34:01+00:00,58.0,6.92,57.0,7.46,12.33,47.59359,-54.27349
2023-08-15 07:44:01+00:00,62.0,5.46,55.0,6.26,12.33,47.59359,-54.27349
2023-08-15 07:54:01+00:00,50.0,5.93,48.0,6.28,12.33,47.59359,-54.27349
2023-08-15 08:04:01+00:00,36.0,6.22,34.0,7.33,12.33,47.59359,-54.27349
2023-08-15 08:14:00+00:00,46.0,6.42,46.0,7.11,12.25,47.59359,-54.27349
2023-08-15 08:24:00+00:00,44.0,5.5,43.0,6.5,12.25,47.59359,-54.27349
2023-08-15 08:34:00+00:00,52.0,5.46,52.0,6.49,12.25,47.59359,-54.27349
2023-08-15 08:44:00+00:00,58.0,5.56,55.0,6.4,12.25,47.59359,-54.27349
2023-08-15 08:54:00+00:00,48.0,5.56,54.0,6.31,12.25,47.59359,-54.27349
2023-08-15 09:04:00+00:00,41.0,5.34,36.0,6.21,12.25,47.59359,-54.27349
2023-08-15 09:14:00+00:00,59.0,5.27,55.0,5.95,12.17,47.59359,-54.27349
2023-08-15 09:24:00+00:00,64.0,5.35,65.0,6.07,12.17,47.59359,-54.27349
2023-08-15 09:34:00+00:00,56.0,5.4,56.0,5.96,12.17,47.59359,-54.27349
2023-08-15 09:44:00+00:00,62.0,3.49,70.0,4.16,12.17,47.59359,-54.27349
2023-08-15 09:54:00+00:00,64.0,3.93,64.0,4.88,12.17,47.59359,-54.27349
2023-08-15 10:04:00+00:00,50.0,3.33,46.0,3.79,12.17,47.59359,-54.27349
2023-08-15 10:14:00+00:00,64.0,3.25,70.0,3.59,12.41,47.59359,-54.27349
2023-08-15 10:24:00+00:00,59.0,2.79,67.0,3.21,12.41,47.59359,-54.27349
2023-08-15 10:34:00+00:00,67.0,3.12,74.0,3.65,12.41,47.59359,-54.27349
2023-08-15 10:44:00+00:00,73.0,3.86,76.0,4.38,12.41,47.59359,-54.27349
2023-08-15 10:54:00+00:00,64.0,2.9,72.0,3.38,12.41,47.59359,-54.27349
2023-08-15 11:04:00+00:00,55.0,2.99,62.0,3.52,12.41,47.59359,-54.27349
2023-08-15 11:14:00+00:00,50.0,2.5,48.0,3.01,12.97,47.59359,-54.27349
2023-08-15 11:24:00+00:00,68.0,2.63,70.0,4.03,12.97,47.59359,-54.27349
2023-08-15 11:34:00+00:00,70.0,2.92,73.0,3.29,12.97,47.59359,-54.27349
2023-08-15 11:44:00+00:00,68.0,3.0,72.0,3.56,12.97,47.59359,-54.27349
2023-08-15 11:54:00+00:00,51.0,3.26,50.0,3.79,12.97,47.59359,-54.27349
2023-08-15 12:04:00+00:00,59.0,3.69,56.0,4.31,12.97,47.59359,-54.27349
2023-08-15 12:14:01+00:00,59.0,3.04,62.0,3.49,13.05,47.59359,-54.27349
2023-08-15 12:24:01+00:00,54.0,3.1,52.0,3.57,13.05,47.59359,-54.27349
2023-08-15 12:34:01+00:00,49.0,3.51,43.0,4.33,13.05,47.59359,-54.27349
2023-08-15 12:44:01+00:00,48.0,3.5,52.0,4.12,13.05,47.59359,-54.27349
2023-08-15 12:54:01+00:00,53.0,2.54,55.0,2.95,13.05,47.59359,-54.27349
2023-08-15 13:04:01+00:00,47.0,2.24,45.0,2.61,13.05,47.59359,-54.27349
2023-08-15 13:14:01+00:00,33.0,3.06,32.0,3.55,13.05,47.59359,-54.27349
2023-08-15 13:24:01+00:00,51.0,3.44,55.0,4.15,13.05,47.59359,-54.27349
2023-08-15 13:34:01+00:00,54.0,3.26,57.0,3.98,13.05,47.59359,-54.27349
2023-08-15 13:44:01+00:00,59.0,3.23,60.0,3.72,13.05,47.59359,-54.27349
2023-08-15 13:54:01+00:00,54.0,3.37,47.0,3.95,13.05,47.59359,-54.27349
2023-08-15 14:04:01+00:00,66.0,2.53,67.0,2.92,13.05,47.59359,-54.27349
2023-08-15 14:14:00+00:00,65.0,2.02,59.0,2.55,13.68,47.59359,-54.27349
2023-08-15 14:24:00+00:00,53.0,2.26,58.0,2.75,13.68,47.59359,-54.27349
2023-08-15 14:34:00+00:00,47.0,2.13,42.0,2.48,13.68,47.59359,-54.27349
2023-08-15 14:44:00+00:00,60.0,1.82,59.0,2.19,13.68,47.59359,-54.27349
2023-08-15 14:54:00+00:00,34.0,1.43,29.0,1.71,13.68,47.59359,-54.27349
2023-08-15 15:04:00+00:00,34.0,1.26,31.0,1.86,13.68,47.59359,-54.27349
2023-08-15 15:14:01+00:00,58.0,1.45,55.0,1.71,13.68,47.59359,-54.27349
2023-08-15 15:24:01+00:00,38.0,0.94,41.0,1.21,13.68,47.59359,-54.27349
2023-08-15 15:34:01+00:00,14.0,0.67,14.0,0.83,13.68,47.59359,-54.27349
2023-08-15 15:44:01+00:00,13.0,0.74,21.0,0.83,13.68,47.59359,-54.27349
2023-08-15 15:54:01+00:00,10.0,0.75,14.0,0.92,13.68,47.59359,-54.27349
2023-08-15 16:04:01+00:00,339.0,1.12,350.0,1.28,13.68,47.59359,-54.27349
2023-08-15 16:14:01+00:00,354.0,1.22,352.0,1.39,13.68,47.59359,-54.27349
2023-08-15 16:24:01+00:00,31.0,0.91,30.0,1.31,13.68,47.59359,-54.27349
2023-08-15 16:34:01+00:00,41.0,0.73,39.0,0.89,13.68,47.59359,-54.27349
2023-08-15 16:44:01+00:00,33.0,1.13,38.0,1.5,13.68,47.59359,-54.27349
2023-08-15 16:54:01+00:00,330.0,1.06,329.0,1.21,13.68,47.59359,-54.27349
2023-08-15 17:04:01+00:00,305.0,0.46,305.0,0.66,13.68,47.59359,-54.27349
2023-08-15 17:14:00+00:00,331.0,0.55,332.0,0.75,13.53,47.59359,-54.27349
2023-08-15 17:24:00+00:00,291.0,0.33,315.0,0.55,13.53,47.59359,-54.27349
2023-08-15 17:34:00+00:00,315.0,0.61,315.0,0.85,13.53,47.59359,-54.27349
2023-08-15 17:44:00+00:00,13.0,0.38,18.0,0.63,13.53,47.59359,-54.27349
2023-08-15 17:54:00+00:00,198.0,0.72,191.0,1.09,13.53,47.59359,-54.27349
2023-08-15 18:04:00+00:00,180.0,1.08,176.0,1.2,13.53,47.59359,-54.27349
2023-08-15 18:14:00+00:00,191.0,2.03,190.0,2.27,13.6,47.59359,-54.27349
2023-08-15 18:24:00+00:00,189.0,2.56,189.0,2.98,13.6,47.59359,-54.27349
2023-08-15 18:34:00+00:00,208.0,2.71,209.0,3.06,13.6,47.59359,-54.27349
2023-08-15 18:44:00+00:00,202.0,3.61,203.0,4.0,13.6,47.59359,-54.27349
2023-08-15 18:54:00+00:00,193.0,4.22,193.0,4.65,13.6,47.59359,-54.27349
2023-08-15 19:04:00+00:00,193.0,4.2,196.0,4.93,13.6,47.59359,-54.27349
2023-08-15 19:14:00+00:00,209.0,5.01,213.0,5.83,13.68,47.59359,-54.27349
2023-08-15 19:24:00+00:00,203.0,4.35,199.0,5.33,13.68,47.59359,-54.27349
2023-08-15 19:34:00+00:00,215.0,5.7,215.0,6.27,13.68,47.59359,-54.27349
2023-08-15 19:44:00+00:00,207.0,5.31,205.0,5.95,13.68,47.59359,-54.27349
2023-08-15 19:54:00+00:00,202.0,5.16,205.0,6.0,13.68,47.59359,-54.27349
2023-08-15 20:04:00+00:00,209.0,6.54,218.0,7.39,13.68,47.59359,-54.27349
2023-08-15 20:14:00+00:00,216.0,6.16,215.0,6.89,13.6,47.59359,-54.27349
2023-08-15 20:24:00+00:00,213.0,5.92,215.0,6.51,13.6,47.59359,-54.27349
2023-08-15 20:34:00+00:00,213.0,6.3,213.0,7.15,13.6,47.59359,-54.27349
2023-08-15 20:44:00+00:00,201.0,5.36,203.0,5.72,13.6,47.59359,-54.27349
2023-08-15 20:54:00+00:00,209.0,5.12,208.0,5.66,13.6,47.59359,-54.27349
2023-08-15 21:04:00+00:00,205.0,5.64,209.0,6.0,13.6,47.59359,-54.27349
2023-08-15 21:14:01+00:00,208.0,5.04,207.0,5.68,13.05,47.59359,-54.27349
2023-08-15 21:24:01+00:00,210.0,5.55,208.0,6.09,13.05,47.59359,-54.27349
2023-08-15 21:34:01+00:00,208.0,5.35,209.0,6.08,13.05,47.59359,-54.27349
2023-08-15 21:44:01+00:00,213.0,4.99,211.0,5.47,13.05,47.59359,-54.27349
2023-08-15 21:54:01+00:00,213.0,6.19,215.0,6.59,13.05,47.59359,-54.27349
2023-08-15 22:04:01+00:00,212.0,5.37,213.0,6.04,13.05,47.59359,-54.27349
2023-08-15 22:14:00+00:00,211.0,4.97,213.0,5.61,12.81,47.59359,-54.27349
2023-08-15 22:24:00+00:00,214.0,4.67,213.0,5.15,12.81,47.59359,-54.27349
2023-08-15 22:34:00+00:00,214.0,4.58,217.0,5.48,12.81,47.59359,-54.27349
2023-08-15 22:44:00+00:00,213.0,4.4,214.0,4.92,12.81,47.59359,-54.27349
2023-08-15 22:54:00+00:00,211.0,3.87,221.0,4.37,12.81,47.59359,-54.27349
2023-08-15 23:04:00+00:00,212.0,3.76,217.0,4.4,12.81,47.59359,-54.27349
2023-08-15 23:14:00+00:00,212.0,4.0,223.0,4.52,12.49,47.59359,-54.27349
2023-08-15 23:24:00+00:00,217.0,3.69,226.0,4.29,12.49,47.59359,-54.27349
2023-08-15 23:34:00+00:00,209.0,4.24,226.0,5.23,12.49,47.59359,-54.27349
2023-08-15 23:44:00+00:00,195.0,3.42,206.0,3.88,12.49,47.59359,-54.27349
2023-08-15 23:54:00+00:00,211.0,4.1,224.0,4.83,12.49,47.59359,-54.27349
